Flag for Canada Weather past 2 weeks in Creston, British Columbia, Canada

Now
58 °F

Cool.


Feels Like: 58 °F
Forecast: 45 / 75 °F
Wind: No wind

Location: Creston

Current Time: Jul 24, 2014 at 8:59:49 PM

Latest Report: Jul 24, 2014 at 8:00 PM


Visibility: N/A

Pressure: 30.06 "Hg

Humidity: 68%

Dew point: 48 °F

Location of CrestonLocation

Historic Weather in Creston — Graph

°F

Creston temperature yesterday

Maximum temperature yesterday: 85 °F (at 4:00 PM)
Minimum temperature yesterday: 56 °F (at 6:00 AM)
Average temperature yesterday: 67 °F

Past Weeks' High & Low Weather Summary

 TemperatureHumidityPressure
High95 °F (Jul 13, 6:00 PM)89% (Jul 23, 6:00 AM)30.18 "Hg (Jul 23, 6:00 AM)
Low55 °F (Jul 24, 6:00 AM)18% (Jul 9, 8:00 PM)29.67 "Hg (Jul 17, 7:00 PM)
Average72 °F50%29.93 "Hg
* Reported Jul 9 7:00 PM — Jul 24 7:00 PM, Creston, Weather by CustomWeather, © 2014

Note: Actual official high and low records may vary slightly from our data, if they occured in-between our weather recording intervals... More about our weather records

Advertising

Creston weather history for July 13, 2014

 ConditionsComfort  
Time TempWeatherWind HumidityBarometerVisibility
12:00 AM
Jul 13
75 °FMild.5 mph35%30.10 "HgN/A
1:00 AM72 °FMild.1 mph40%30.11 "HgN/A
2:00 AM69 °FMild.2 mph42%30.12 "HgN/A
3:00 AM68 °FMild.2 mph43%30.13 "HgN/A
4:00 AM67 °FMild.2 mph46%30.14 "HgN/A
5:00 AM63 °FMild.3 mph54%30.15 "HgN/A
6:00 AM65 °FMild.1 mph50%30.16 "HgN/A
7:00 AM69 °FMild.1 mph50%30.16 "HgN/A
8:00 AM69 °FMild.2 mph50%30.18 "HgN/A
9:00 AM73 °FMild.1 mph48%30.18 "HgN/A
10:00 AM76 °FMild.3 mph47%30.16 "HgN/A
11:00 AM79 °FPleasantly warm.5 mph34%30.14 "HgN/A
12:00 PM82 °FPleasantly warm.6 mph35%30.12 "HgN/A
1:00 PM85 °FPleasantly warm.5 mph30%30.09 "HgN/A
2:00 PM90 °FHot.5 mph27%30.07 "HgN/A
3:00 PM91 °FHot.3 mph23%30.06 "HgN/A
4:00 PM92 °FHot.5 mph23%30.04 "HgN/A
5:00 PM94 °FExtremely hot.5 mph22%30.02 "HgN/A
6:00 PM95 °FExtremely hot.2 mph23%30.01 "HgN/A
7:00 PM90 °FHot.3 mph32%30.00 "HgN/A
8:00 PM85 °FWarm.2 mph43%30.00 "HgN/A
9:00 PM81 °FPleasantly warm.2 mph33%30.01 "HgN/A
10:00 PM75 °FMild.7 mph42%30.03 "HgN/A
11:00 PM77 °FPleasantly warm.5 mph34%30.03 "HgN/A
Weather by CustomWeather, © 2014

See weather overviewHow to use our weather pages